Hourly Data Report for March 07, 2017

All times are specified in Local Standard Time (LST). Add 1 hour to adjust for Daylight Saving Time where and when it is observed.

TORONTO CITY
ONTARIO

43°40'00.000" N
79°24'00.000" W
112.50 m
6158355
71508
XTO

Download Data

Hourly Data (March 2017)
Hourly Data Report for March 7, 2017
TIME Temp Definition
°C
Dew Point Definition
°C
Rel Hum Definition
%
Wind Dir Definition
10's deg

Wind Spd Definition
km/h
Visibility Definition
km
Stn Press Definition
kPa
Hmdx Definition


Wind Chill Definition


Weather Definition


00:00 6.2 5.2 93 LegendMM LegendMM   100.33     LegendNANA
01:00 6.4 5.5 94 LegendMM LegendMM   100.27     LegendNANA
02:00 7.0 6.3 95 LegendMM LegendMM   100.18     LegendNANA
03:00 8.5 7.7 95 LegendMM LegendMM   100.09     LegendNANA
04:00 8.9 8.1 95 LegendMM LegendMM   100.00     LegendNANA
05:00 7.5 6.8 96 LegendMM LegendMM   99.93     LegendNANA
06:00 9.6 8.9 95 LegendMM LegendMM   99.89     LegendNANA
07:00 9.8 8.8 93 LegendMM LegendMM   99.84     LegendNANA
08:00 9.8 8.6 92 LegendMM LegendMM   99.86     LegendNANA
09:00 9.5 7.9 90 LegendMM LegendMM   99.84     LegendNANA
10:00 9.7 7.7 87 LegendMM LegendMM   99.75     LegendNANA
11:00 9.6 7.4 86 LegendMM LegendMM   99.67     LegendNANA
12:00 9.7 7.7 87 LegendMM LegendMM   99.60     LegendNANA
13:00 10.0 7.4 84 LegendMM LegendMM   99.55     LegendNANA
14:00 10.3 8.2 87 LegendMM LegendMM   99.44     LegendNANA
15:00 10.5 8.3 86 LegendMM LegendMM   99.46     LegendNANA
16:00 10.8 8.4 85 LegendMM LegendMM   99.45     LegendNANA
17:00 9.9 8.4 91 LegendMM LegendMM   99.45     LegendNANA
18:00 10.4 8.6 89 LegendMM LegendMM   99.44     LegendNANA
19:00 9.5 6.6 82 LegendMM LegendMM   99.59     LegendNANA
20:00 8.0 3.9 75 LegendMM LegendMM   99.54     LegendNANA
21:00 7.9 2.8 70 LegendMM LegendMM   99.67     LegendNANA
22:00 7.1 -0.5 59 LegendMM LegendMM   99.71     LegendNANA
23:00 6.9 -0.6 59 LegendMM LegendMM   99.73     LegendNANA

Notes on Data Quality.

Legend

  • E = Estimated
  • M = Missing
  • NA = Not Available
Date modified: